TimeCST,TemperatureF,Dew PointF,Humidity,Sea Level PressureIn,VisibilityMPH,Wind Direction,Wind SpeedMPH,Gust SpeedMPH,PrecipitationIn,Events,Conditions,WindDirDegrees,DateUTC
12:53 AM,51.1,39.0,63,29.75,10.0,WSW,5.8,-,N/A,,Clear,240,2012-11-22 06:53:00
1:53 AM,48.0,39.0,71,29.74,10.0,West,4.6,-,N/A,,Clear,260,2012-11-22 07:53:00
3:53 AM,43.0,37.9,82,29.78,10.0,NNW,10.4,18.4,N/A,,Clear,330,2012-11-22 09:53:00
4:53 AM,35.1,33.1,92,29.78,10.0,Calm,Calm,-,N/A,,Clear,0,2012-11-22 10:53:00
5:53 AM,34.0,30.9,89,29.81,10.0,West,6.9,-,N/A,,Clear,270,2012-11-22 11:53:00
7:53 AM,32.0,26.1,79,29.87,10.0,West,9.2,-,N/A,,Clear,280,2012-11-22 13:53:00
8:53 AM,52.0,28.0,40,29.89,10.0,NNW,15.0,-,N/A,,Clear,340,2012-11-22 14:53:00
9:53 AM,59.0,26.1,28,29.93,10.0,NNW,15.0,21.9,N/A,,Clear,340,2012-11-22 15:53:00
10:53 AM,63.0,28.0,27,29.96,10.0,North,12.7,-,N/A,,Clear,350,2012-11-22 16:53:00
11:53 AM,63.0,30.0,29,29.98,10.0,North,17.3,25.3,N/A,,Clear,350,2012-11-22 17:53:00
12:53 PM,64.0,33.1,31,29.99,10.0,North,21.9,28.8,N/A,,Clear,350,2012-11-22 18:53:00
1:53 PM,60.1,35.1,39,30.05,10.0,North,24.2,31.1,N/A,,Clear,360,2012-11-22 19:53:00
2:53 PM,60.1,34.0,38,30.09,10.0,North,24.2,31.1,N/A,,Clear,350,2012-11-22 20:53:00
3:53 PM,59.0,30.9,35,30.13,10.0,North,18.4,28.8,N/A,,Clear,350,2012-11-22 21:53:00
4:53 PM,54.0,28.9,38,30.20,10.0,North,18.4,25.3,N/A,,Clear,10,2012-11-22 22:53:00
5:53 PM,48.0,28.0,46,30.26,10.0,North,8.1,-,N/A,,Clear,10,2012-11-22 23:53:00
6:53 PM,43.0,24.1,47,30.31,10.0,North,8.1,-,N/A,,Clear,350,2012-11-23 00:53:00
7:53 PM,37.9,23.0,55,30.35,10.0,NNW,10.4,-,N/A,,Clear,340,2012-11-23 01:53:00
8:53 PM,35.1,23.0,61,30.36,10.0,NW,4.6,-,N/A,,Clear,320,2012-11-23 02:53:00
9:53 PM,36.0,23.0,59,30.37,10.0,NW,8.1,-,N/A,,Clear,320,2012-11-23 03:53:00
10:53 PM,32.0,21.9,66,30.40,10.0,NW,6.9,-,N/A,,Clear,310,2012-11-23 04:53:00
11:53 PM,34.0,21.0,59,30.43,10.0,NNW,9.2,-,N/A,,Clear,340,2012-11-23 05:53:00